Temperature
22 23 23 24 27 28 29 32 33 32 32 32 31 31 30 29 28 25 25 25 24 23 23 23 22 22 22 22 22 21 21 21 21 21 21 20 20 20 20 20 20 20 20 19 19 19 19 19 19
22 23 24 26 28 28 30 32 33 32 32 31 31 31 30 28 27 26 25 24 23 23 23 23 22 22 22 22 21 21 21 21 21 21 20 20 20 20 20 20 20 19 19 19 19 19 19 19 19
22 23 26 28 28 29 31 32 32 32 32 31 31 31 29 28 27 26 25 24 23 22 23 23 22 22 22 21 21 21 21 21 21 20 20 20 20 20 20 19 19 19 19 19 19 19 19 19 19
22 24 26 28 28 31 32 32 32 32 32 32 31 30 28 27 26 26 25 24 23 22 23 23 22 22 22 21 21 21 21 20 20 20 20 20 20 20 19 19 19 19 19 19 19 19 19 19 19
23 26 27 28 29 32 33 33 31 32 32 32 31 29 26 26 26 26 25 24 23 22 23 22 22 22 22 21 21 21 20 20 20 20 20 20 19 19 19 19 19 19 19 19 19 19 19 19 19
25 27 27 28 30 32 33 32 32 32 32 32 30 28 25 24 25 25 25 24 23 22 23 22 22 22 21 21 21 21 20 20 20 20 20 19 19 19 19 19 19 19 19 19 19 19 19 19 19
26 28 28 29 31 32 32 32 32 32 32 31 30 28 25 24 24 25 25 24 23 22 22 22 22 22 21 21 21 20 20 20 20 20 19 19 19 19 19 19 19 19 19 19 18 19 19 19 19
26 28 28 30 31 31 32 32 31 31 30 30 29 27 25 24 24 25 25 24 23 22 22 22 21 21 21 21 21 20 20 20 20 19 19 19 19 19 19 19 19 19 19 18 18 18 18 18 19
27 27 28 30 31 32 32 32 31 30 29 29 28 27 25 24 24 24 24 24 22 21 21 21 21 21 20 20 20 20 20 20 20 19 19 19 19 19 19 19 19 19 19 18 18 18 18 18 18
27 27 28 31 32 32 32 31 31 30 29 28 26 25 24 24 24 24 24 23 22 21 21 21 20 20 20 20 20 20 20 20 20 19 19 19 19 18 18 18 18 18 18 18 18 18 18 18 18
28 28 30 31 31 31 31 31 30 30 29 28 26 25 24 24 23 23 23 22 22 21 21 21 20 20 20 19 20 19 19 19 19 19 19 19 18 18 18 18 18 18 18 18 18 18 18 18 18
29 29 30 30 30 30 30 30 29 28 27 26 25 24 23 23 23 23 22 22 21 21 21 21 20 20 20 19 19 19 19 19 19 18 18 18 18 18 18 18 18 18 18 18 18 18 18 17 17
29 29 29 29 29 29 30 29 29 28 26 25 24 23 23 23 22 22 22 21 20 20 20 20 20 20 20 20 19 19 19 19 19 18 18 18 18 18 18 18 18 18 17 17 17 17 17 17 17
29 29 29 29 29 29 30 29 29 27 27 25 24 23 22 22 21 20 20 19 19 19 19 20 20 20 20 19 19 19 19 18 18 18 18 18 18 18 18 18 17 17 17 17 17 17 17 17 17
29 29 29 29 29 29 29 29 29 27 27 25 24 22 21 21 20 19 19 18 18 18 18 19 19 19 19 19 19 18 18 18 18 18 18 18 18 17 17 17 17 17 17 17 17 17 17 17 17
28 28 27 29 30 30 29 27 28 27 27 25 23 22 21 19 19 18 18 18 17 18 18 18 18 19 18 18 18 18 18 18 18 18 17 17 17 17 17 17 17 17 17 17 17 17 17 16 17
27 26 27 28 29 30 29 27 27 27 26 25 23 21 20 18 18 17 17 17 17 17 17 17 18 18 18 18 18 17 17 17 17 17 17 17 17 17 17 16 16 16 16 16 16 16 16 16 16
26 27 27 28 29 29 28 27 27 26 26 25 23 21 20 18 17 16 16 16 16 17 17 17 17 17 17 17 17 17 17 17 17 17 17 17 17 16 16 16 16 16 16 16 16 16 16 16 16
27 28 28 28 29 29 28 27 27 27 26 25 23 21 19 18 17 16 16 16 16 16 16 16 16 16 16 16 16 16 16 16 16 16 16 16 16 16 16 15 15 16 15 16 16 15 15 15 15
28 28 28 28 29 29 28 27 27 27 26 25 23 21 19 18 16 16 15 15 15 15 15 15 16 16 16 16 16 16 16 16 15 15 16 16 16 16 15 15 15 15 15 15 15 15 15 15 15
27 27 27 27 27 28 27 26 25 25 25 24 22 21 19 18 16 15 14 14 14 14 14 14 15 15 15 15 15 15 15 15 15 15 15 15 15 15 15 15 15 15 15 15 15 15 14 14 14
26 27 28 28 27 26 26 25 24 24 24 23 22 20 18 17 16 15 14 13 13 13 13 14 14 14 15 15 15 14 14 14 14 14 14 14 14 14 14 14 14 14 14 14 14 14 14 14 14
27 28 27 27 26 25 25 24 23 22 22 22 22 20 18 16 15 14 13 13 13 13 13 13 13 13 14 14 14 14 13 14 14 14 14 14 14 14 14 14 14 14 14 14 14 14 14 14 14
28 27 27 27 26 24 24 24 22 22 21 21 21 19 17 16 15 14 13 12 12 12 12 12 12 13 13 13 13 13 13 13 13 13 13 13 13 13 13 13 13 13 13 13 13 13 13 13 13
27 26 24 23 22 23 24 24 22 22 22 21 20 18 17 15 14 14 13 12 12 11 11 11 12 12 12 12 12 12 12 12 12 12 12 12 12 12 12 12 13 12 12 12 13 13 13 13 13
26 25 22 21 21 21 22 22 21 22 22 21 19 18 16 15 14 13 12 12 11 11 11 11 11 11 11 11 11 11 11 11 11 11 11 11 11 12 12 12 12 12 12 12 12 12 12 12 12
25 25 25 23 22 21 21 21 20 21 21 20 18 17 16 15 14 13 12 11 10 10 10 10 10 10 10 10 10 11 11 11 11 11 11 11 11 11 11 11 11 11 11 11 11 11 11 12 12
27 26 25 23 21 20 20 19 19 20 20 20 18 17 15 14 13 12 11 10 10 10 10 10 10 10 10 10 10 10 10 10 10 10 10 10 10 10 10 10 10 10 10 11 11 11 11 11 11
25 25 25 24 23 21 19 19 20 19 20 20 18 17 15 14 12 11 11 10 10 10 9 9 9 9 9 9 9 9 9 9 9 9 9 9 9 9 9 10 10 10 10 10 10 10 10 10 10
25 25 25 23 22 22 21 19 20 19 20 20 18 16 14 13 12 11 11 10 10 9 9 9 9 8 8 8 8 8 8 8 9 9 9 9 9 9 9 9 9 9 9 9 10 10 10 10 10
Wind_Speed
10 14 11 9 8 10 17 15 6 6 5 4 4 4 6 8 8 8 7 17 23 21 20 20 19 19 19 19 18 18 17 17 16 15 15 14 13 13 12 12 12 11 11 11 11 10 10 10 10
11 13 11 8 10 14 15 12 6 6 7 5 4 4 8 9 12 12 12 19 22 20 19 18 19 18 19 19 18 18 17 17 16 15 15 14 13 12 12 11 11 11 10 10 10 10 10 10 10
11 16 9 9 15 17 11 1 5 6 7 4 4 5 6 8 10 12 15 21 21 20 19 19 19 18 18 18 18 18 17 16 16 15 15 14 13 12 11 11 10 10 10 10 10 10 10 9 9
8 9 8 11 18 20 12 3 3 3 5 6 5 6 7 6 9 15 17 20 20 20 20 20 19 18 18 17 17 17 17 16 16 15 15 14 13 12 11 10 10 9 9 9 9 9 9 9 8
11 9 12 15 18 17 8 5 4 6 6 7 6 8 9 7 12 18 18 19 19 20 19 19 19 18 17 17 16 16 16 16 15 15 14 13 13 12 11 10 9 9 9 9 9 9 8 8 8
9 9 13 16 18 14 7 5 6 9 6 6 7 10 8 5 8 14 17 17 20 21 19 19 18 18 17 16 16 15 15 15 15 14 14 13 12 12 11 10 9 9 9 9 9 8 8 8 7
13 12 15 18 15 10 6 5 6 7 6 4 6 8 10 10 8 12 15 16 18 20 18 16 17 17 16 16 15 14 14 14 13 13 13 12 12 12 11 10 9 9 9 9 9 9 8 8 8
13 13 18 17 14 8 5 6 6 6 4 1 3 6 10 9 8 12 14 16 17 17 16 15 15 16 15 15 15 14 14 13 12 12 11 11 11 11 11 11 10 10 10 10 9 9 9 8 8
16 14 16 16 12 5 5 6 7 4 3 2 2 7 15 14 10 12 14 14 15 15 14 13 14 13 14 15 15 14 13 12 12 11 11 11 11 12 12 13 13 12 11 11 10 10 10 9 9
12 13 17 13 6 2 4 5 5 7 7 6 9 15 17 16 12 12 13 13 14 14 14 12 13 11 11 12 13 11 11 12 11 11 12 11 11 11 11 14 16 14 12 11 12 11 11 10 10
14 16 14 6 4 5 2 5 2 4 5 5 10 13 14 14 13 10 10 9 10 11 10 11 11 8 7 8 9 7 8 10 10 10 12 11 9 7 6 8 12 12 12 11 12 12 12 13 12
14 14 12 6 3 5 6 3 3 2 3 6 10 9 10 11 10 10 10 8 9 8 7 9 11 8 6 6 5 5 4 6 6 8 9 7 4 3 4 5 8 9 9 10 10 10 12 12 11
14 12 9 8 5 8 8 3 4 5 7 8 11 9 6 9 9 8 9 10 8 6 3 6 8 7 5 5 3 4 2 3 3 5 7 5 3 2 2 3 5 6 8 7 6 7 7 7 7
11 12 10 10 10 11 10 7 6 5 7 9 10 9 7 7 9 10 13 11 9 5 2 5 7 7 5 4 3 2 2 2 2 3 3 3 3 2 2 2 1 3 5 6 6 6 4 3 3
10 11 11 12 13 12 11 12 10 10 8 8 9 10 10 11 13 13 12 10 9 7 4 5 6 7 5 4 3 2 2 2 2 2 1 1 2 2 1 2 2 2 5 5 5 5 3 3 3
10 12 13 14 15 13 14 13 11 10 9 9 9 10 11 12 12 11 11 10 7 7 6 5 6 7 5 4 2 2 2 2 2 2 2 1 0 1 1 2 2 3 4 3 3 3 3 4 3
12 14 14 13 14 12 14 10 9 9 10 10 11 10 11 12 13 12 11 10 8 8 7 7 8 6 5 3 2 1 2 2 2 3 3 2 2 2 2 1 2 3 2 2 4 3 3 4 4
11 15 15 14 14 14 13 10 11 12 10 11 12 11 12 13 13 12 10 10 11 10 9 9 8 7 4 3 1 1 2 2 2 3 3 3 3 3 2 1 1 2 3 3 3 3 3 4 3
13 13 11 10 12 13 12 11 12 12 10 10 12 12 13 13 12 11 10 10 10 10 10 9 8 7 4 2 1 1 1 2 2 3 4 4 4 4 2 2 2 2 3 3 4 3 3 3 3
13 11 8 7 8 9 9 10 10 11 10 10 11 12 13 13 12 11 10 10 10 10 9 9 8 7 6 4 2 2 2 2 2 3 4 4 4 4 3 3 3 2 2 3 3 3 3 3 4
11 10 7 7 7 9 9 10 11 11 8 9 11 12 13 12 12 10 10 10 10 10 10 9 9 8 8 6 3 2 2 2 2 3 3 4 4 4 4 4 3 3 3 2 3 3 4 4 4
9 10 9 9 10 8 11 10 10 11 10 10 11 12 12 12 11 10 10 10 9 9 9 9 9 9 8 7 6 5 3 3 3 3 3 3 5 5 5 5 4 3 3 3 3 2 2 4 4
8 9 10 10 8 9 10 9 8 10 11 12 12 12 13 12 11 11 10 10 9 9 9 9 9 10 9 8 7 5 5 4 3 3 4 4 4 6 7 6 4 3 3 3 3 3 3 2 2
9 10 10 10 9 13 11 11 8 12 13 12 12 13 14 13 12 11 10 10 10 9 9 9 10 10 10 10 9 8 7 6 6 6 5 4 4 5 7 7 6 4 4 4 3 3 2 2 1
9 8 5 6 8 9 9 7 4 9 12 15 16 16 14 13 12 11 10 10 10 10 10 9 10 10 10 10 10 9 8 7 7 6 6 6 5 6 7 7 6 5 5 5 4 4 4 3 2
9 10 6 5 7 6 6 4 4 8 12 17 18 17 15 13 11 11 11 10 10 10 9 9 10 10 10 10 9 9 9 6 6 7 6 6 5 6 6 6 6 7 7 6 5 4 5 4 4
9 9 8 7 9 6 4 1 6 12 16 18 19 17 15 14 13 12 11 10 10 10 10 9 10 10 9 9 9 9 9 8 7 6 6 6 5 6 6 6 6 6 6 6 5 5 5 5 5
9 8 6 6 5 5 4 3 3 10 15 18 18 17 15 14 13 12 11 10 10 10 9 9 10 9 9 9 8 8 8 8 7 7 8 7 7 7 7 7 7 7 7 6 6 5 5 6 6
7 8 7 7 4 4 3 1 2 6 10 14 16 16 16 15 13 12 10 10 10 10 9 9 9 9 9 8 8 8 8 8 8 7 8 7 7 6 7 7 7 8 8 7 7 7 7 8 7
6 7 7 6 6 5 3 0 1 3 7 13 15 16 15 14 13 12 11 10 10 9 9 9 8 8 7 7 7 7 7 7 8 8 8 8 8 7 7 7 8 9 9 8 9 9 9 9 9
Wind_Direction
260 258 254 258 248 242 250 250 206 147 136 100 84 69 66 60 77 102 125 119 118 125 131 133 134 137 141 143 145 144 143 141 139 138 134 132 130 128 127 125 123 123 124 122 122 122 119 117 115
259 250 245 248 248 244 242 236 191 136 101 90 118 121 94 83 97 116 124 118 123 129 136 135 135 138 142 145 147 147 148 147 145 144 142 140 139 137 135 131 129 128 128 128 128 128 127 126 127
257 256 246 241 244 253 264 213 143 130 130 161 163 128 98 93 102 116 125 127 127 132 132 131 136 137 142 146 149 150 151 151 150 149 148 147 146 145 142 139 137 134 132 133 134 133 133 134 136
236 230 235 243 246 246 254 167 140 168 177 182 169 120 89 74 106 122 134 131 130 133 129 133 135 137 141 145 150 152 153 153 154 154 153 154 152 151 150 148 146 142 141 140 141 140 140 143 143
238 236 230 245 250 253 240 143 159 236 209 187 166 116 85 47 100 126 138 133 134 131 129 134 133 135 139 143 147 150 153 154 155 156 157 157 157 156 157 157 155 154 152 151 150 149 149 151 153
222 231 237 244 247 245 233 166 196 236 225 189 162 128 110 111 119 138 136 135 132 128 129 133 134 135 137 140 141 144 148 152 154 157 159 160 161 162 164 166 165 165 163 160 160 160 161 163 167
240 246 250 254 253 234 217 178 218 233 229 212 164 137 133 134 146 140 132 127 125 127 132 140 140 137 136 136 136 138 142 148 151 155 159 163 166 169 172 174 175 174 172 172 172 172 172 175 179
243 262 266 263 261 240 189 190 220 243 232 255 134 143 137 137 156 140 133 128 127 129 135 143 147 145 145 142 140 140 142 146 150 156 162 168 174 179 182 184 185 184 183 184 184 184 185 187 193
241 256 263 261 256 225 165 201 201 204 226 151 109 115 134 144 164 151 138 133 129 130 137 147 148 152 155 151 146 146 148 151 156 165 170 176 190 193 194 204 186 189 193 194 194 194 195 196 205
229 245 251 265 276 242 168 201 195 195 205 167 141 122 136 145 156 155 144 139 138 137 142 149 149 155 159 150 148 158 166 164 180 180 180 196 212 207 205 194 184 190 197 201 204 203 203 209 211
229 245 263 289 319 322 220 185 169 207 193 169 138 130 138 149 152 147 129 128 130 134 138 143 138 144 144 135 152 166 172 166 195 192 185 206 219 213 202 166 179 189 197 206 204 205 216 217 220
236 246 265 274 252 270 268 191 149 136 100 89 101 118 133 136 133 130 124 118 111 118 131 133 135 135 126 127 146 162 165 163 187 178 182 209 228 226 195 178 186 193 206 213 203 210 221 224 229
236 248 248 261 243 238 248 218 168 148 124 104 97 102 115 127 127 120 104 91 85 88 111 106 113 113 114 113 147 154 151 155 170 148 179 212 219 237 226 204 191 201 210 215 222 223 223 228 232
229 240 233 230 227 225 229 214 191 168 148 128 120 123 113 91 90 88 86 90 93 86 45 76 89 94 86 89 84 77 107 119 126 122 167 216 245 238 249 243 220 234 236 217 219 234 232 240 240
247 242 232 225 220 214 215 218 194 171 157 141 122 106 92 76 69 70 74 85 105 113 75 66 86 80 69 71 62 61 53 70 58 89 115 208 276 329 321 291 258 262 265 248 232 234 233 232 238
236 238 233 219 215 208 211 214 182 172 164 145 122 105 88 73 68 72 85 89 88 93 77 65 82 80 73 66 58 54 30 43 58 53 52 57 333 315 300 284 271 260 271 266 253 241 233 233 218
226 229 229 213 200 203 210 214 174 182 174 152 131 116 103 88 74 68 66 75 74 74 70 62 61 63 71 78 74 58 56 42 47 59 44 23 356 294 252 266 297 284 274 267 260 240 242 239 226
227 228 221 203 186 205 207 196 164 188 179 156 141 125 107 93 83 78 71 66 64 65 64 61 59 50 52 80 90 85 69 59 53 57 49 26 354 334 316 270 266 271 259 251 256 257 238 236 217
257 246 225 195 179 203 205 181 173 180 180 164 140 125 113 102 95 87 78 68 66 60 58 56 55 45 38 44 36 69 75 66 61 61 55 37 17 358 330 312 264 252 258 255 256 250 233 231 190
266 256 227 182 176 207 203 186 175 173 175 156 138 128 120 114 101 88 78 68 62 57 56 53 47 39 32 26 16 41 56 61 70 52 54 34 21 4 345 334 309 276 269 262 261 256 239 233 202
257 260 233 190 191 217 222 204 182 176 171 145 134 127 121 115 107 96 82 71 63 57 53 50 43 37 30 17 20 45 62 57 57 53 48 30 25 26 12 355 346 338 319 290 278 258 244 236 225
245 259 257 233 210 221 225 223 194 178 168 158 144 131 123 115 110 101 90 76 66 62 59 53 47 41 31 25 31 30 45 42 33 32 37 36 36 31 23 8 356 347 342 333 315 305 276 235 233
244 246 247 246 236 246 232 238 205 174 183 174 157 143 130 123 114 103 92 83 71 62 60 55 51 45 37 34 35 36 47 44 35 31 31 31 39 35 25 22 10 1 356 353 344 337 331 277 243
243 243 244 247 243 244 245 242 204 184 183 168 161 145 133 125 116 108 101 91 78 67 61 57 53 47 40 39 38 40 43 42 40 32 27 28 38 35 26 29 22 19 12 7 1 351 350 326 295
244 245 245 252 250 254 281 259 178 171 168 165 160 145 134 128 122 117 106 92 80 69 61 58 55 50 43 43 43 40 37 44 42 33 29 29 36 38 29 30 26 25 22 15 10 17 13 9 26
239 241 236 244 259 258 273 265 132 148 150 147 146 138 135 129 121 112 100 92 83 73 65 60 58 54 48 47 46 41 35 41 42 37 40 40 38 39 31 34 35 30 29 27 21 37 34 38 50
238 251 247 256 273 279 257 131 123 132 126 130 135 138 137 128 120 111 102 93 84 76 68 63 63 58 52 50 50 49 43 42 43 43 44 43 37 40 35 39 41 35 32 33 35 44 43 49 51
254 257 268 266 278 273 252 219 188 151 144 143 144 144 135 128 120 112 105 97 89 83 76 69 66 63 58 55 49 51 47 45 45 46 46 41 39 39 40 43 44 41 36 35 47 53 51 61 60
250 256 272 287 285 291 297 275 175 186 170 156 151 145 138 132 125 119 112 104 98 90 81 74 70 66 62 60 57 51 48 49 52 51 49 45 44 44 46 46 50 51 46 40 48 55 59 60 63
271 263 271 285 300 303 307 43 78 158 172 152 144 137 132 128 124 120 112 104 97 91 87 80 74 72 69 67 63 57 54 54 55 54 52 50 46 46 46 47 52 55 52 47 50 52 53 57 59
Height
1500 1502 1503 1504 1499 1493 1485 1466 1458 1462 1466 1469 1473 1475 1479 1483 1488 1501 1500 1500 1501 1504 1508 1511 1515 1518 1521 1524 1527 1530 1533 1535 1537 1539 1541 1543 1545 1547 1549 1551 1553 1554 1556 1558 1559 1561 1562 1563 1564
1500 1503 1505 1501 1495 1494 1478 1460 1459 1462 1467 1472 1474 1477 1480 1484 1488 1494 1498 1500 1501 1505 1508 1512 1515 1519 1522 1525 1528 1531 1534 1536 1539 1541 1543 1545 1547 1549 1551 1552 1554 1556 1558 1559 1560 1562 1563 1564 1565
1500 1502 1503 1495 1491 1485 1470 1459 1460 1464 1469 1472 1474 1477 1481 1487 1490 1494 1498 1500 1502 1506 1509 1512 1516 1519 1523 1526 1529 1532 1535 1538 1540 1542 1544 1546 1548 1550 1552 1554 1555 1557 1559 1560 1561 1562 1563 1564 1565
1501 1502 1499 1491 1484 1469 1461 1461 1464 1466 1468 1471 1473 1478 1485 1488 1492 1495 1498 1501 1504 1507 1509 1513 1517 1520 1523 1526 1530 1533 1536 1539 1541 1543 1546 1548 1550 1551 1553 1555 1556 1558 1559 1561 1562 1563 1564 1565 1566
1500 1497 1493 1488 1476 1460 1455 1460 1467 1468 1467 1470 1473 1479 1487 1491 1493 1496 1499 1502 1505 1508 1510 1514 1517 1521 1524 1527 1530 1534 1537 1539 1542 1544 1546 1549 1550 1552 1554 1555 1557 1559 1560 1561 1562 1563 1564 1565 1566
1498 1491 1491 1486 1470 1458 1456 1461 1467 1468 1466 1469 1474 1480 1489 1491 1496 1498 1501 1504 1506 1508 1510 1514 1518 1521 1525 1528 1531 1534 1537 1540 1542 1545 1547 1549 1551 1553 1554 1556 1557 1559 1560 1561 1562 1563 1564 1565 1566
1494 1487 1483 1474 1464 1458 1457 1463 1466 1467 1467 1469 1474 1481 1490 1493 1495 1499 1502 1504 1506 1508 1510 1515 1518 1522 1525 1528 1531 1535 1538 1540 1543 1545 1547 1549 1551 1553 1554 1555 1557 1558 1560 1561 1562 1563 1564 1565 1566
1491 1486 1479 1469 1463 1459 1459 1464 1468 1469 1470 1472 1474 1481 1489 1493 1496 1500 1503 1505 1508 1509 1511 1515 1519 1522 1525 1528 1532 1535 1538 1540 1543 1545 1547 1549 1551 1552 1554 1555 1556 1558 1559 1560 1561 1562 1563 1564 1565
1490 1488 1482 1468 1460 1457 1459 1464 1468 1472 1473 1473 1477 1481 1487 1493 1497 1501 1503 1506 1508 1510 1513 1516 1520 1523 1526 1529 1532 1535 1537 1540 1542 1544 1547 1549 1550 1552 1553 1554 1555 1557 1558 1559 1560 1561 1562 1563 1564
1485 1484 1475 1461 1455 1457 1460 1464 1468 1472 1473 1475 1480 1484 1487 1490 1496 1501 1502 1505 1508 1510 1514 1517 1520 1523 1527 1530 1532 1534 1537 1539 1541 1544 1546 1548 1550 1551 1553 1553 1554 1555 1557 1558 1559 1560 1561 1561 1562
1480 1477 1468 1463 1462 1463 1463 1466 1470 1472 1475 1477 1481 1486 1489 1493 1496 1499 1502 1505 1505 1507 1512 1517 1519 1523 1526 1529 1532 1535 1538 1539 1541 1543 1545 1546 1549 1551 1552 1552 1552 1553 1555 1556 1557 1558 1559 1560 1561
1475 1472 1469 1467 1467 1470 1468 1468 1473 1477 1479 1481 1483 1486 1488 1492 1495 1497 1500 1503 1505 1509 1514 1517 1519 1522 1526 1528 1531 1534 1537 1539 1540 1541 1543 1545 1547 1549 1550 1550 1551 1551 1552 1554 1555 1556 1557 1559 1560
1473 1470 1470 1471 1471 1473 1472 1471 1475 1478 1482 1484 1486 1489 1492 1493 1495 1497 1501 1504 1506 1508 1515 1518 1520 1522 1525 1528 1531 1534 1537 1538 1539 1540 1541 1543 1545 1547 1548 1549 1549 1550 1550 1551 1552 1554 1556 1557 1558
1470 1470 1469 1471 1472 1473 1473 1473 1476 1480 1482 1485 1488 1490 1493 1495 1495 1496 1499 1503 1505 1510 1515 1519 1521 1522 1524 1527 1530 1533 1535 1536 1537 1538 1539 1541 1542 1544 1545 1546 1547 1548 1549 1549 1550 1552 1553 1554 1555
1469 1469 1469 1469 1470 1470 1473 1475 1475 1480 1482 1485 1489 1492 1494 1495 1497 1499 1502 1505 1508 1513 1514 1519 1522 1522 1523 1526 1528 1531 1533 1535 1536 1537 1537 1538 1539 1540 1541 1543 1543 1545 1546 1546 1547 1549 1550 1551 1552
1470 1472 1474 1466 1466 1467 1474 1479 1474 1478 1481 1485 1490 1493 1496 1498 1500 1503 1506 1509 1513 1515 1516 1520 1521 1521 1523 1525 1527 1529 1531 1533 1534 1535 1536 1536 1537 1537 1538 1540 1541 1542 1543 1544 1544 1545 1547 1548 1549
1472 1476 1473 1465 1462 1463 1469 1475 1474 1478 1481 1484 1489 1493 1498 1502 1504 1505 1508 1510 1513 1515 1516 1518 1519 1520 1522 1524 1526 1528 1530 1531 1532 1533 1533 1534 1534 1535 1536 1537 1538 1539 1540 1541 1541 1542 1543 1544 1545
1474 1469 1466 1464 1460 1462 1467 1472 1473 1479 1480 1484 1489 1494 1499 1503 1506 1510 1511 1512 1512 1514 1516 1517 1519 1520 1522 1523 1525 1527 1528 1529 1530 1530 1531 1531 1531 1532 1533 1534 1534 1536 1537 1538 1539 1539 1540 1540 1542
1462 1461 1461 1458 1455 1461 1465 1471 1473 1476 1479 1482 1488 1495 1500 1505 1509 1512 1513 1514 1514 1515 1516 1517 1518 1520 1521 1523 1524 1525 1526 1527 1528 1528 1529 1529 1529 1530 1530 1531 1532 1532 1533 1534 1535 1535 1536 1536 1538
1460 1460 1459 1457 1455 1460 1465 1469 1471 1475 1479 1483 1489 1495 1500 1506 1509 1513 1514 1515 1515 1516 1517 1517 1518 1520 1520 1521 1523 1524 1525 1525 1526 1527 1527 1527 1527 1527 1528 1528 1527 1528 1530 1531 1531 1532 1532 1532 1534
1463 1462 1460 1463 1461 1462 1467 1473 1474 1476 1481 1485 1491 1496 1501 1506 1510 1513 1515 1516 1516 1517 1517 1518 1518 1519 1520 1521 1522 1522 1523 1524 1525 1525 1525 1525 1525 1525 1525 1524 1524 1525 1526 1527 1527 1527 1528 1528 1529
1468 1459 1458 1460 1467 1472 1471 1484 1479 1477 1483 1489 1494 1500 1504 1508 1511 1514 1516 1517 1517 1517 1517 1518 1518 1519 1519 1520 1521 1522 1523 1523 1524 1524 1524 1523 1523 1523 1523 1522 1522 1523 1523 1523 1523 1523 1523 1523 1524
1462 1457 1458 1460 1465 1472 1472 1482 1483 1480 1486 1490 1495 1501 1506 1510 1512 1515 1516 1517 1518 1518 1518 1518 1519 1519 1519 1520 1520 1521 1522 1522 1523 1523 1522 1522 1521 1521 1521 1520 1520 1520 1520 1521 1521 1520 1520 1519 1520
1457 1460 1460 1461 1467 1483 1477 1481 1485 1482 1483 1488 1494 1501 1507 1510 1513 1515 1517 1518 1519 1519 1519 1519 1519 1519 1520 1520 1520 1521 1521 1522 1522 1522 1522 1521 1521 1520 1519 1519 1518 1518 1518 1518 1518 1518 1517 1517 1517
1459 1470 1484 1490 1491 1488 1475 1476 1482 1476 1477 1484 1493 1501 1507 1511 1514 1516 1518 1519 1520 1520 1520 1520 1520 1520 1520 1520 1521 1521 1521 1521 1521 1521 1521 1521 1521 1520 1519 1518 1518 1517 1516 1516 1516 1516 1515 1514 1514
1463 1469 1491 1506 1502 1492 1482 1482 1481 1474 1476 1483 1493 1501 1507 1511 1514 1517 1519 1520 1521 1521 1521 1521 1521 1521 1521 1521 1521 1521 1521 1521 1522 1522 1522 1521 1521 1520 1520 1519 1518 1517 1516 1516 1516 1515 1514 1514 1513
1465 1466 1468 1481 1485 1493 1490 1484 1483 1477 1482 1488 1496 1502 1507 1511 1514 1517 1519 1521 1522 1522 1522 1522 1522 1523 1523 1523 1523 1522 1522 1522 1522 1522 1522 1522 1521 1521 1520 1519 1518 1517 1517 1516 1516 1515 1515 1514 1514
1458 1462 1468 1477 1494 1501 1495 1493 1492 1484 1485 1489 1496 1501 1506 1510 1514 1517 1520 1522 1523 1523 1524 1524 1524 1524 1524 1524 1524 1524 1524 1524 1524 1523 1523 1523 1522 1521 1521 1520 1519 1518 1518 1517 1517 1517 1517 1516 1516
1461 1463 1465 1468 1474 1491 1502 1501 1483 1484 1484 1487 1494 1499 1505 1509 1513 1517 1520 1523 1524 1524 1525 1525 1526 1526 1526 1526 1526 1525 1525 1525 1525 1525 1524 1524 1523 1523 1522 1522 1521 1520 1520 1520 1519 1519 1519 1518 1518
1459 1462 1466 1479 1481 1479 1489 1499 1481 1481 1482 1485 1493 1500 1505 1510 1514 1518 1521 1523 1525 1526 1526 1527 1527 1527 1528 1528 1528 1527 1527 1527 1527 1527 1526 1526 1526 1525 1525 1524 1523 1523 1522 1522 1522 1521 1521 1521 1520